KB8DLR Weather Reports


time (UTC)temp
C
wind
direction
speed
KPH
gust
KPH
rain 1hr
cm
rain 24hr
cm
rain mn
cm
humidity
%
barometer
mb
20260510214030 26 322 1.6 3.2 0.00 0.00 0.00 39 1017.2
20260510213017 27 24 1.6 4.8 0.00 0.00 0.00 39 1017.0
20260510212020 27 11 0.0 3.2 0.00 0.00 0.00 38 1017.0
20260510211024 27 325 1.6 3.2 0.00 0.00 0.00 40 1017.0
20260510210028 26 315 1.6 3.2 0.00 0.00 0.00 42 1017.0
20260510205032 26 348 1.6 4.8 0.00 0.00 0.00 43 1017.0
20260510204038 25 18 1.6 3.2 0.00 0.00 0.00 45 1017.0
20260510203022 24 0 1.6 3.2 0.00 0.00 0.00 45 1017.0
20260510202027 26 19 1.6 4.8 0.00 0.00 0.00 41 1017.0
20260510201024 26 20 3.2 3.2 0.00 0.00 0.00 43 1017.0
20260510200017 26 348 1.6 3.2 0.00 0.00 0.00 43 1017.0
20260510195021 26 38 1.6 4.8 0.00 0.00 0.00 41 1017.1
20260510194019 27 16 1.6 4.8 0.00 0.00 0.00 41 1017.2
20260510193018 26 105 1.6 4.8 0.00 0.00 0.00 41 1017.2
20260510192016 26 40 1.6 4.8 0.00 0.00 0.00 41 1017.2
20260510191021 27 225 1.6 4.8 0.00 0.00 0.00 40 1017.2
20260510190024 28 0 0.0 3.2 0.00 0.00 0.00 41 1017.2
20260510185028 27 10 3.2 4.8 0.00 0.00 0.00 41 1017.2
20260510184032 27 23 0.0 3.2 0.00 0.00 0.00 43 1017.1
20260510183019 27 68 1.6 3.2 0.00 0.00 0.00 42 1017.0
20260510182022 27 330 1.6 3.2 0.00 0.00 0.00 41 1017.3
20260510181027 26 3 1.6 3.2 0.00 0.00 0.00 41 1017.2
20260510180051 26 0 1.6 4.8 0.00 0.00 0.00 44 1016.7
20260510175017 25 31 0.0 3.2 0.00 0.00 0.00 44 1016.9
20260510174021 25 359 3.2 4.8 0.00 0.00 0.00 44 1017.0
20260510173025 25 21 3.2 4.8 0.00 0.00 0.00 44 1017.2
20260510172029 25 88 3.2 9.7 0.00 0.00 0.00 43 1017.0
20260510171017 24 15 1.6 3.2 0.00 0.00 0.00 43 1017.0
20260510170021 23 21 3.2 4.8 0.00 0.00 0.00 43 1017.2
20260510165024 25 3 3.2 3.2 0.00 0.00 0.00 45 1017.2
20260510164028 25 359 1.6 3.2 0.00 0.00 0.00 48 1017.2
20260510163033 24 5 1.6 6.4 0.00 0.00 0.00 48 1017.2
20260510162019 23 358 1.6 3.2 0.00 0.00 0.00 48 1017.2
20260510161024 23 3 1.6 6.4 0.00 0.00 0.00 51 1017.0
20260510160047 22 83 1.6 6.4 0.00 0.00 0.00 52 1017.0
20260510155032 21 7 1.6 3.2 0.00 0.00 0.00 57 1017.0
20260510154017 20 8 1.6 3.2 0.00 0.00 0.00 60 1016.9
20260510153021 20 7 1.6 4.8 0.00 0.00 0.00 61 1016.7
20260510152026 19 357 1.6 3.2 0.00 0.00 0.00 62 1016.6
20260510151030 18 63 1.6 4.8 0.00 0.00 0.00 64 1016.3
20260510150016 20 353 3.2 3.2 0.00 0.00 0.00 62 1016.1
20260510145020 18 56 1.6 3.2 0.00 0.00 0.00 69 1016.0
20260510144025 17 4 1.6 3.2 0.00 0.00 0.00 71 1015.9
20260510143043 16 354 1.6 3.2 0.00 0.00 0.00 74 1015.8
20260510142015 16 2 1.6 3.2 0.00 0.00 0.00 74 1015.8
20260510141039 15 17 3.2 3.2 0.00 0.00 0.00 75 1015.7
20260510140018 15 43 1.6 3.2 0.00 0.00 0.00 76 1015.7
20260510135016 15 3 1.6 3.2 0.00 0.00 0.00 75 1015.8
20260510134031 15 0.0 1.6 0.00 0.00 0.00 77 1015.7
20260510133017 15 94 1.6 3.2 0.00 0.00 0.00 78 1015.6
20260510132022 14 0 0.0 1.6 0.00 0.00 0.00 80 1015.2
20260510131026 14 23 0.0 1.6 0.00 0.03 0.00 82 1015.1
20260510130030 13 23 0.0 1.6 0.00 0.03 0.00 84 1015.2
20260510125016 13 0.0 0.0 0.00 0.05 0.00 86 1015.0
20260510124020 13 0.0 0.0 0.00 0.05 0.00 86 1014.9
20260510123026 13 0 0.0 1.6 0.00 0.05 0.00 87 1014.8
20260510122029 13 15 1.6 1.6 0.00 0.05 0.00 86 1014.6
20260510121015 13 0.0 0.0 0.00 0.05 0.00 87 1014.4
20260510120019 13 0.0 0.0 0.00 0.05 0.00 90 1014.4
20260510115023 13 45 0.0 1.6 0.00 0.08 0.00 93 1014.2
20260510114047 12 11 1.6 3.2 0.00 0.08 0.00 95 1014.0
20260510113031 12 0.0 3.2 0.00 0.08 0.00 99 1013.9
20260510112017 12 0.0 0.0 0.00 0.08 0.00 99 1013.9
20260510111022 12 0.0 0.0 0.00 0.13 0.00 99 1013.6
20260510110026 12 0.0 0.0 0.00 0.15 0.00 99 1013.2
20260510105030 12 0.0 0.0 0.00 0.18 0.00 99 1013.0
20260510104016 12 0.0 0.0 0.00 0.20 0.00 99 1012.8
20260510103020 12 0.0 0.0 0.00 0.23 0.00 99 1012.5
20260510102024 11 0.0 0.0 0.00 0.25 0.00 99 1012.3
20260510101029 11 0.0 0.0 0.00 0.25 0.00 99 1012.2
20260510100035 11 0.0 0.0 0.00 0.28 0.00 99 1012.2
20260510095019 11 0.0 0.0 0.00 0.28 0.00 99 1012.1
20260510094023 12 0.0 0.0 0.00 0.30 0.00 99 1011.9
20260510093108 12 0.0 0.0 0.00 0.33 0.00 99 1011.7
20260510092025 12 0.0 0.0 0.00 0.36 0.00 99 1011.5
20260510091017 12 0.0 0.0 0.00 0.38 0.00 99 1011.2
20260510090021 12 0.0 0.0 0.00 0.38 0.00 99 1010.8
20260510085020 13 0.0 0.0 0.00 0.41 0.00 99 1010.9
20260510084039 13 0.0 0.0 0.00 0.41 0.00 99 1010.8
20260510083016 13 0.0 0.0 0.00 0.43 0.00 99 1010.8
20260510082020 14 0.0 0.0 0.00 0.43 0.00 99 1010.7
20260510081024 14 0.0 0.0 0.00 0.46 0.00 99 1010.4
20260510080029 14 0.0 0.0 0.00 0.48 0.00 99 1010.3
20260510075014 15 0.0 0.0 0.00 0.48 0.00 97 1010.3
20260510074019 15 0.0 0.0 0.00 0.51 0.00 97 1010.4
20260510073023 15 0.0 0.0 0.00 0.53 0.00 96 1010.4
20260510072028 15 185 0.0 4.8 0.00 0.53 0.00 96 1010.5
20260510071052 16 0.0 0.0 0.00 0.56 0.00 94 1010.5
20260510070018 16 225 0.0 3.2 0.00 0.56 0.00 93 1010.5
20260510065022 16 203 0.0 1.6 0.00 0.58 0.00 92 1010.4
20260510064026 16 138 0.0 4.8 0.00 0.58 0.00 91 1010.4
20260510063030 16 192 1.6 4.8 0.00 0.58 0.00 91 1010.8
20260510062038 16 192 3.2 8.0 0.00 0.58 0.00 91 1010.8
20260510061021 16 0.0 0.0 0.00 0.58 0.00 91 1010.8
20260510060025 16 219 1.6 3.2 0.00 0.58 0.00 91 1010.5
20260510055029 16 186 1.6 4.8 0.00 0.58 0.00 90 1010.5
20260510054015 16 201 3.2 6.4 0.00 0.58 0.00 90 1010.5
20260510053020 16 206 3.2 6.4 0.00 0.58 0.00 90 1010.5
20260510052023 17 189 1.6 3.2 0.00 0.58 0.00 89 1010.4
20260510051035 17 191 1.6 4.8 0.00 0.61 0.00 88 1010.3
20260510050020 17 185 3.2 9.7 0.00 0.61 0.00 88 1010.2
20260510045018 17 205 4.8 6.4 0.00 0.61 0.00 88 1010.1
20260510044016 17 190 3.2 8.0 0.00 0.61 0.00 88 1010.0
20260510043032 17 194 3.2 8.0 0.00 0.61 0.00 87 1010.0
20260510042038 17 203 3.2 4.8 0.00 0.61 0.00 87 1010.0
20260510041022 17 166 3.2 9.7 0.00 0.61 0.00 86 1010.0
20260510040026 17 206 3.2 8.0 0.00 0.61 0.00 86 1009.8
20260510035031 17 197 3.2 4.8 0.00 0.61 0.61 86 1009.7
20260510034017 17 195 3.2 8.0 0.00 0.61 0.61 86 1009.6
20260510033021 16 209 3.2 3.2 0.00 0.61 0.61 86 1009.6
20260510032026 16 193 1.6 3.2 0.00 0.61 0.61 87 1009.6
20260510031030 16 158 0.0 3.2 0.00 0.61 0.61 86 1009.5
20260510030016 16 0.0 0.0 0.00 0.61 0.61 86 1009.5
20260510025040 16 191 0.0 3.2 0.00 0.61 0.61 85 1009.5
20260510024024 16 214 0.0 3.2 0.00 0.61 0.61 85 1009.5
20260510023028 16 148 0.0 3.2 0.00 0.61 0.61 85 1009.3
20260510022032 16 195 0.0 3.2 0.00 0.61 0.61 85 1009.3
20260510021019 16 180 0.0 4.8 0.00 0.61 0.61 86 1009.0
20260510020023 16 176 0.0 3.2 0.00 0.61 0.61 88 1009.0
20260510015108 16 0.0 1.6 0.00 0.61 0.61 87 1008.8
20260510014031 16 0.0 0.0 0.00 0.61 0.61 88 1008.7
20260510013018 16 0.0 0.0 0.00 0.61 0.61 85 1008.7
20260510012021 17 0.0 0.0 0.00 0.61 0.61 82 1008.4
20260510011026 17 0.0 0.0 0.00 0.61 0.61 79 1008.5
20260510010030 18 0.0 0.0 0.00 0.61 0.61 75 1008.3
20260510005016 18 191 0.0 1.6 0.00 0.61 0.61 74 1008.2
20260510004020 19 131 0.0 3.2 0.00 0.61 0.61 71 1008.0
20260510003024 20 205 1.6 4.8 0.00 0.61 0.61 69 1007.9
20260510002028 20 199 1.6 3.2 0.00 0.61 0.61 68 1007.7
20260510001027 20 198 1.6 3.2 0.00 0.61 0.61 67 1007.7
20260510000019 21 198 1.6 6.4 0.00 0.61 0.61 65 1007.6
20260509235023 21 204 3.2 4.8 0.00 0.61 0.61 65 1007.5
20260509234021 21 200 3.2 9.7 0.00 0.61 0.61 65 1007.4
20260509233039 21 192 4.8 9.7 0.00 0.61 0.61 64 1007.4
20260509232018 21 186 4.8 6.4 0.00 0.61 0.61 63 1007.3
20260509231016 21 212 3.2 12.9 0.00 0.61 0.61 63 1007.4
20260509230026 21 189 4.8 8.0 0.00 0.61 0.61 63 1007.4
20260509225030 22 215 4.8 11.3 0.00 0.61 0.61 63 1007.4
20260509224016 22 196 4.8 9.7 0.00 0.61 0.61 62 1007.4
20260509223020 22 205 3.2 9.7 0.00 0.61 0.61 63 1007.3
20260509222024 22 181 4.8 9.7 0.00 0.61 0.61 63 1007.3
20260509221028 22 205 3.2 8.0 0.00 0.61 0.61 61 1007.5
20260509220033 23 209 4.8 9.7 0.00 0.61 0.61 61 1007.5
20260509215019 23 172 4.8 9.7 0.00 0.61 0.61 60 1007.6